This demonstration page uses our WeatherBlox Daily Observations layout. Learn more.

Left ArrowRight Arrow

Hourly Observations for May 30, 2021

Temp ( °F °C ) Dew Point ( °F °C ) Humidity (%) Winds ( mph kmh ) Pressure ( in mb ) Visibility ( mi km ) Precip ( " mm )
12:53 am 00:53 Clear 58 14.4 49 9.4 72 72 NNW 9 15 30.01 1016 10 16 0.00 0.00
1:48 am 01:48 Mostly Cloudy 57 14 48 9 72 72 NW 6 9 30.02 1017 10 16 0.00 0.00
1:53 am 01:53 Mostly Cloudy 57 13.9 49 9.4 74 74 VRB 5 7 30.00 1016 10 16 0.00 0.00
2:53 am 02:53 Cloudy 57 13.9 48 8.9 72 72 N 8 13 30.00 1016 10 16 0.00 0.00
3:53 am 03:53 Cloudy 56 13.3 47 8.3 72 72 NNW 9 15 30.01 1016 10 16 0.00 0.00
4:53 am 04:53 Mostly Clear 54 12.2 47 8.3 77 77 N 6 9 30.02 1017 10 16 0.00 0.00
5:53 am 05:53 Partly Cloudy 53 11.7 47 8.3 80 80 VRB 5 7 30.03 1017 10 16 0.00 0.00
6:53 am 06:53 Partly Cloudy 53 11.7 47 8.3 80 80 VRB 5 7 30.05 1018 10 16 0.00 0.00
7:53 am 07:53 Mostly Cloudy 54 12.2 48 8.9 80 80 VRB 3 6 30.08 1019 10 16 0.00 0.00
8:53 am 08:53 Sunny 58 14.4 50 10 75 75 VRB 7 11 30.09 1019 10 16 0.00 0.00
9:53 am 09:53 Mostly Cloudy 61 16.1 50 10 67 67 WNW 8 13 30.11 1020 10 16 0.00 0.00
10:53 am 10:53 Mostly Sunny 64 17.8 51 10.6 63 63 undefined N/A 30.11 1020 10 16 0.00 0.00
11:53 am 11:53 Mostly Sunny 68 20 52 11.1 57 57 Calm 30.11 1020 10 16 0.00 0.00
12:53 pm 12:53 Mostly Sunny 69 20.6 53 11.7 57 57 VRB 5 7 30.11 1020 10 16 0.00 0.00
1:53 pm 13:53 Partly Cloudy 72 22.2 54 12.2 53 53 undefined N/A 30.11 1020 10 16 0.00 0.00
2:53 pm 14:53 Partly Cloudy 74 23.3 52 11.1 46 46 NNW 6 9 30.11 1020 10 16 0.00 0.00
3:53 pm 15:53 Mostly Sunny 74 23.3 51 10.6 45 45 VRB 7 11 30.10 1019 10 16 0.00 0.00
4:53 pm 16:53 Sunny 75 23.9 50 10 41 41 NNW 6 9 30.10 1019 10 16 0.00 0.00
5:53 pm 17:53 Sunny 75 23.9 51 10.6 43 43 NNW 7 11 30.10 1019 10 16 0.00 0.00
6:53 pm 18:53 Sunny 74 23.3 48 8.9 40 40 WNW 6 9 30.10 1019 10 16 0.00 0.00
7:53 pm 19:53 Sunny 73 22.8 48 8.9 41 41 WNW 8 13 30.13 1020 10 16 0.00 0.00
8:53 pm 20:53 Clear 68 20 50 10 53 53 NW 5 7 30.14 1021 10 16 0.00 0.00
9:53 pm 21:53 Clear 65 18.3 50 10 59 59 NNW 5 7 30.16 1021 10 16 0.00 0.00
10:53 pm 22:53 Clear 63 17.2 50 10 63 63 VRB 3 6 30.19 1022 10 16 0.00 0.00
11:53 pm 23:53 Clear 62 16.7 49 9.4 62 62 Calm 30.20 1023 10 16 0.00 0.00

Powered by AerisWeather